Time,TemperatureF,DewpointF,PressureIn,WindDirection,WindDirectionDegrees,WindSpeedMPH,WindSpeedGustMPH,Humidity,HourlyPrecipIn,Conditions,Clouds,dailyrainin,SoftwareType,DateUTC
2013-01-17 00:02:00,32.0,21.0,29.98,SW,220,13.0,-999.0,63,-99.99,,,-99.99,,2013-01-17 00:02:00,
2013-01-17 00:12:00,32.0,21.0,29.98,SW,220,13.0,20.0,63,-99.99,,,-99.99,,2013-01-17 00:12:00,
2013-01-17 00:22:00,32.0,21.0,29.98,SW,220,12.0,-999.0,63,-99.99,,,-99.99,,2013-01-17 00:22:00,
2013-01-17 00:32:00,32.0,21.0,29.98,SW,220,12.0,-999.0,63,-99.99,,,-99.99,,2013-01-17 00:32:00,
2013-01-17 00:42:00,32.0,21.0,29.98,SW,220,12.0,-999.0,63,-99.99,,,-99.99,,2013-01-17 00:42:00,
2013-01-17 00:52:00,32.0,21.0,29.99,SW,220,12.0,-999.0,63,-99.99,,,-99.99,,2013-01-17 00:52:00,
2013-01-17 01:02:00,32.0,21.0,29.99,SW,220,12.0,-999.0,63,-99.99,,,-99.99,,2013-01-17 01:02:00,
2013-01-17 01:12:00,32.0,21.0,29.99,SW,220,10.0,-999.0,63,-99.99,,,-99.99,,2013-01-17 01:12:00,
2013-01-17 01:22:00,32.0,21.0,29.99,SW,220,10.0,-999.0,63,-99.99,,,-99.99,,2013-01-17 01:22:00,
2013-01-17 01:33:00,32.0,21.0,29.99,SW,220,13.0,-999.0,63,-99.99,,,-99.99,,2013-01-17 01:33:00,
2013-01-17 01:42:00,32.0,21.0,30.00,SW,220,13.0,17.0,63,-99.99,,,-99.99,,2013-01-17 01:42:00,
2013-01-17 01:52:00,32.0,21.0,30.00,SW,220,12.0,-999.0,63,-99.99,,,-99.99,,2013-01-17 01:52:00,
2013-01-17 02:02:00,32.0,21.0,30.00,SW,220,12.0,17.0,63,-99.99,,,-99.99,,2013-01-17 02:02:00,
2013-01-17 02:12:00,32.0,21.0,30.00,SW,220,14.0,-999.0,63,-99.99,,,-99.99,,2013-01-17 02:12:00,
2013-01-17 02:22:00,32.0,21.0,30.00,SW,220,14.0,18.0,63,-99.99,,,-99.99,,2013-01-17 02:22:00,
2013-01-17 02:32:00,32.0,21.0,30.01,SW,230,14.0,-999.0,63,-99.99,,,-99.99,,2013-01-17 02:32:00,
2013-01-17 02:42:00,32.0,21.0,30.01,SW,230,14.0,-999.0,63,-99.99,,,-99.99,,2013-01-17 02:42:00,
2013-01-17 02:52:00,32.0,21.0,30.01,SW,230,14.0,-999.0,63,-99.99,,,-99.99,,2013-01-17 02:52:00,
2013-01-17 03:03:00,32.0,21.0,30.02,SW,220,15.0,-999.0,63,-99.99,,,-99.99,,2013-01-17 03:03:00,
2013-01-17 03:12:00,32.0,21.0,30.02,SW,230,14.0,-999.0,63,-99.99,,,-99.99,,2013-01-17 03:12:00,
2013-01-17 03:22:00,34.0,21.0,30.02,WSW,240,14.0,-999.0,59,-99.99,,,-99.99,,2013-01-17 03:22:00,
2013-01-17 03:33:00,34.0,21.0,30.02,SW,230,14.0,20.0,59,-99.99,,,-99.99,,2013-01-17 03:33:00,
2013-01-17 03:42:00,34.0,21.0,30.02,WSW,240,14.0,20.0,59,-99.99,,,-99.99,,2013-01-17 03:42:00,
2013-01-17 03:52:00,34.0,21.0,30.03,WSW,240,13.0,18.0,59,-99.99,,,-99.99,,2013-01-17 03:52:00,
2013-01-17 04:02:00,34.0,21.0,30.02,WSW,240,14.0,20.0,59,-99.99,,,-99.99,,2013-01-17 04:02:00,
2013-01-17 04:12:00,34.0,21.0,30.03,WSW,250,15.0,18.0,59,-99.99,,,-99.99,,2013-01-17 04:12:00,
2013-01-17 04:22:00,34.0,21.0,30.02,WSW,240,12.0,18.0,59,-99.99,,,-99.99,,2013-01-17 04:22:00,
2013-01-17 04:33:00,34.0,21.0,30.03,WSW,250,13.0,20.0,59,-99.99,,,-99.99,,2013-01-17 04:33:00,
2013-01-17 04:42:00,34.0,21.0,30.03,West,260,14.0,18.0,59,-99.99,,,-99.99,,2013-01-17 04:42:00,
2013-01-17 04:52:00,34.0,21.0,30.04,WSW,240,13.0,18.0,59,-99.99,,,-99.99,,2013-01-17 04:52:00,
2013-01-17 05:04:00,34.0,21.0,30.04,WSW,250,10.0,-999.0,59,-99.99,,,-99.99,,2013-01-17 05:04:00,
2013-01-17 05:12:00,34.0,21.0,30.04,WSW,250,12.0,-999.0,59,-99.99,,,-99.99,,2013-01-17 05:12:00,
2013-01-17 05:22:00,34.0,23.0,30.04,WSW,250,9.0,-999.0,64,-99.99,,,-99.99,,2013-01-17 05:22:00,
2013-01-17 05:33:00,34.0,21.0,30.04,WSW,250,10.0,-999.0,59,-99.99,,,-99.99,,2013-01-17 05:33:00,
2013-01-17 05:42:00,34.0,21.0,30.04,West,260,13.0,16.0,59,-99.99,,,-99.99,,2013-01-17 05:42:00,
2013-01-17 05:52:00,34.0,23.0,30.05,WSW,250,9.0,-999.0,64,-99.99,,,-99.99,,2013-01-17 05:52:00,
2013-01-17 06:03:00,32.0,23.0,30.05,WSW,250,10.0,-999.0,69,-99.99,,,-99.99,,2013-01-17 06:03:00,
2013-01-17 06:12:00,32.0,23.0,30.05,West,260,9.0,-999.0,69,-99.99,,,-99.99,,2013-01-17 06:12:00,
2013-01-17 06:22:00,32.0,23.0,30.06,West,260,8.0,-999.0,69,-99.99,,,-99.99,,2013-01-17 06:22:00,
2013-01-17 06:33:00,32.0,23.0,30.07,West,270,9.0,-999.0,69,-99.99,,,-99.99,,2013-01-17 06:33:00,
2013-01-17 06:42:00,32.0,23.0,30.07,West,260,8.0,-999.0,69,-99.99,,,-99.99,,2013-01-17 06:42:00,
2013-01-17 06:52:00,32.0,25.0,30.07,West,270,8.0,-999.0,74,-99.99,,,-99.99,,2013-01-17 06:52:00,
2013-01-17 07:02:00,32.0,25.0,30.07,West,260,9.0,-999.0,74,-99.99,,,-99.99,,2013-01-17 07:02:00,
2013-01-17 07:12:00,32.0,25.0,30.07,West,260,7.0,-999.0,74,-99.99,,,-99.99,,2013-01-17 07:12:00,
2013-01-17 07:22:00,32.0,25.0,30.08,West,260,7.0,-999.0,74,-99.99,,,-99.99,,2013-01-17 07:22:00,
2013-01-17 07:33:00,32.0,25.0,30.08,West,260,5.0,-999.0,74,-99.99,,,-99.99,,2013-01-17 07:33:00,
2013-01-17 07:42:00,32.0,25.0,30.08,West,260,7.0,-999.0,74,-99.99,,,-99.99,,2013-01-17 07:42:00,
2013-01-17 07:52:00,32.0,25.0,30.08,West,260,7.0,-999.0,74,-99.99,,,-99.99,,2013-01-17 07:52:00,
2013-01-17 08:02:00,32.0,25.0,30.08,WSW,250,8.0,-999.0,74,-99.99,,,-99.99,,2013-01-17 08:02:00,
2013-01-17 08:12:00,32.0,25.0,30.09,WSW,250,7.0,-999.0,74,-99.99,,,-99.99,,2013-01-17 08:12:00,
2013-01-17 08:22:00,32.0,25.0,30.10,WSW,250,7.0,-999.0,74,-99.99,,,-99.99,,2013-01-17 08:22:00,
2013-01-17 08:32:00,32.0,25.0,30.10,West,260,7.0,-999.0,74,-99.99,,,-99.99,,2013-01-17 08:32:00,
2013-01-17 08:43:00,32.0,25.0,30.10,West,260,6.0,-999.0,74,-99.99,,,-99.99,,2013-01-17 08:43:00,
2013-01-17 08:52:00,32.0,25.0,30.10,WSW,240,8.0,-999.0,74,-99.99,,,-99.99,,2013-01-17 08:52:00,
2013-01-17 09:03:00,32.0,25.0,30.10,WSW,250,7.0,-999.0,74,-99.99,,,-99.99,,2013-01-17 09:03:00,
2013-01-17 09:12:00,32.0,25.0,30.10,WSW,250,7.0,-999.0,74,-99.99,,,-99.99,,2013-01-17 09:12:00,
2013-01-17 09:22:00,32.0,27.0,30.10,SW,230,8.0,-999.0,80,-99.99,,,-99.99,,2013-01-17 09:22:00,
2013-01-17 09:32:00,32.0,27.0,30.10,SW,230,6.0,-999.0,80,-99.99,,,-99.99,,2013-01-17 09:32:00,
2013-01-17 09:42:00,32.0,27.0,30.10,SW,230,7.0,-999.0,80,-99.99,,,-99.99,,2013-01-17 09:42:00,
2013-01-17 09:52:00,32.0,27.0,30.10,WSW,240,7.0,-999.0,80,-99.99,,,-99.99,,2013-01-17 09:52:00,
2013-01-17 10:02:00,32.0,27.0,30.10,WSW,250,6.0,-999.0,80,-99.99,,,-99.99,,2013-01-17 10:02:00,
2013-01-17 10:12:00,32.0,27.0,30.11,WSW,250,5.0,-999.0,80,-99.99,,,-99.99,,2013-01-17 10:12:00,
2013-01-17 10:22:00,32.0,27.0,30.11,WSW,250,6.0,-999.0,80,-99.99,,,-99.99,,2013-01-17 10:22:00,
2013-01-17 10:32:00,32.0,27.0,30.10,West,270,6.0,-999.0,80,-99.99,,,-99.99,,2013-01-17 10:32:00,
2013-01-17 10:42:00,32.0,27.0,30.11,West,260,6.0,-999.0,80,-99.99,,,-99.99,,2013-01-17 10:42:00,
2013-01-17 10:52:00,32.0,27.0,30.11,WSW,240,7.0,-999.0,80,-99.99,,,-99.99,,2013-01-17 10:52:00,
2013-01-17 11:03:00,32.0,27.0,30.12,WSW,250,5.0,-999.0,80,-99.99,,,-99.99,,2013-01-17 11:03:00,
2013-01-17 11:12:00,32.0,27.0,30.12,WSW,240,6.0,-999.0,80,-99.99,,,-99.99,,2013-01-17 11:12:00,
2013-01-17 11:22:00,32.0,27.0,30.12,West,260,5.0,-999.0,80,-99.99,,,-99.99,,2013-01-17 11:22:00,
2013-01-17 11:33:00,32.0,27.0,30.12,WSW,250,6.0,-999.0,80,-99.99,,,-99.99,,2013-01-17 11:33:00,
2013-01-17 11:42:00,32.0,27.0,30.12,WSW,240,7.0,-999.0,80,-99.99,,,-99.99,,2013-01-17 11:42:00,
2013-01-17 11:52:00,32.0,27.0,30.13,SW,230,6.0,-999.0,80,-99.99,,,-99.99,,2013-01-17 11:52:00,
2013-01-17 12:02:00,32.0,27.0,30.13,WSW,240,7.0,-999.0,80,-99.99,,,-99.99,,2013-01-17 12:02:00,
2013-01-17 12:12:00,32.0,27.0,30.14,WSW,240,5.0,-999.0,80,-99.99,,,-99.99,,2013-01-17 12:12:00,
2013-01-17 12:23:00,32.0,27.0,30.14,WSW,240,6.0,-999.0,80,-99.99,,,-99.99,,2013-01-17 12:23:00,
2013-01-17 12:33:00,32.0,27.0,30.14,WSW,240,5.0,-999.0,80,-99.99,,,-99.99,,2013-01-17 12:33:00,
2013-01-17 12:43:00,32.0,27.0,30.14,WSW,250,6.0,-999.0,80,-99.99,,,-99.99,,2013-01-17 12:43:00,
2013-01-17 12:52:00,32.0,27.0,30.15,WSW,250,6.0,-999.0,80,-99.99,,,-99.99,,2013-01-17 12:52:00,
2013-01-17 13:03:00,32.0,27.0,30.15,WSW,250,6.0,-999.0,80,-99.99,,,-99.99,,2013-01-17 13:03:00,
2013-01-17 13:12:00,32.0,27.0,30.16,WSW,250,6.0,-999.0,80,-99.99,,,-99.99,,2013-01-17 13:12:00,
2013-01-17 13:23:00,32.0,27.0,30.17,WSW,250,5.0,-999.0,80,-99.99,,,-99.99,,2013-01-17 13:23:00,
2013-01-17 13:33:00,32.0,27.0,30.18,WSW,250,6.0,-999.0,80,-99.99,,,-99.99,,2013-01-17 13:33:00,
2013-01-17 13:43:00,32.0,27.0,30.18,WSW,240,6.0,-999.0,80,-99.99,,,-99.99,,2013-01-17 13:43:00,
2013-01-17 13:52:00,30.0,27.0,30.18,WSW,250,5.0,-999.0,86,-99.99,,,-99.99,,2013-01-17 13:52:00,
2013-01-17 14:03:00,30.0,27.0,30.18,WSW,250,5.0,-999.0,86,-99.99,,,-99.99,,2013-01-17 14:03:00,
2013-01-17 14:12:00,30.0,27.0,30.18,WSW,240,5.0,-999.0,86,-99.99,,,-99.99,,2013-01-17 14:12:00,
2013-01-17 14:23:00,30.0,27.0,30.19,WSW,240,5.0,-999.0,86,-99.99,,,-99.99,,2013-01-17 14:23:00,
2013-01-17 14:33:00,32.0,27.0,30.20,WSW,250,6.0,-999.0,80,-99.99,,,-99.99,,2013-01-17 14:33:00,
2013-01-17 14:43:00,32.0,27.0,30.20,WSW,250,5.0,-999.0,80,-99.99,,,-99.99,,2013-01-17 14:43:00,
2013-01-17 14:53:00,32.0,27.0,30.21,WSW,250,5.0,-999.0,80,-99.99,,,-99.99,,2013-01-17 14:53:00,
2013-01-17 15:03:00,32.0,27.0,30.21,WSW,250,6.0,-999.0,80,-99.99,,,-99.99,,2013-01-17 15:03:00,
2013-01-17 15:12:00,32.0,27.0,30.21,WSW,240,7.0,-999.0,80,-99.99,,,-99.99,,2013-01-17 15:12:00,
2013-01-17 15:23:00,34.0,28.0,30.21,WSW,240,7.0,-999.0,80,-99.99,,,-99.99,,2013-01-17 15:23:00,
2013-01-17 15:33:00,34.0,28.0,30.21,WSW,240,8.0,-999.0,80,-99.99,,,-99.99,,2013-01-17 15:33:00,
2013-01-17 15:43:00,34.0,28.0,30.22,WSW,250,7.0,-999.0,80,-99.99,,,-99.99,,2013-01-17 15:43:00,
2013-01-17 15:53:00,34.0,28.0,30.21,West,270,7.0,-999.0,80,-99.99,,,-99.99,,2013-01-17 15:53:00,
2013-01-17 16:03:00,34.0,28.0,30.21,West,270,8.0,-999.0,80,-99.99,,,-99.99,,2013-01-17 16:03:00,
2013-01-17 16:12:00,34.0,28.0,30.21,West,270,7.0,-999.0,80,-99.99,,,-99.99,,2013-01-17 16:12:00,
2013-01-17 16:23:00,36.0,28.0,30.20,West,280,6.0,-999.0,74,-99.99,,,-99.99,,2013-01-17 16:23:00,
2013-01-17 16:33:00,36.0,28.0,30.20,West,260,7.0,-999.0,74,-99.99,,,-99.99,,2013-01-17 16:33:00,
2013-01-17 16:43:00,36.0,28.0,30.20,West,270,6.0,-999.0,74,-99.99,,,-99.99,,2013-01-17 16:43:00,
2013-01-17 16:53:00,36.0,28.0,30.20,WNW,300,5.0,-999.0,74,-99.99,,,-99.99,,2013-01-17 16:53:00,
2013-01-17 17:03:00,37.0,28.0,30.19,West,270,5.0,-999.0,69,-99.99,,,-99.99,,2013-01-17 17:03:00,
2013-01-17 17:13:00,37.0,28.0,30.19,NNW,330,6.0,-999.0,69,-99.99,,,-99.99,,2013-01-17 17:13:00,
2013-01-17 17:23:00,37.0,28.0,30.18,NW,310,5.0,-999.0,69,-99.99,,,-99.99,,2013-01-17 17:23:00,
2013-01-17 17:33:00,37.0,27.0,30.18,NW,320,5.0,-999.0,64,-99.99,,,-99.99,,2013-01-17 17:33:00,
2013-01-17 17:43:00,37.0,25.0,30.17,NW,310,5.0,-999.0,60,-99.99,,,-99.99,,2013-01-17 17:43:00,
2013-01-17 17:53:00,37.0,27.0,30.17,NNW,330,8.0,-999.0,64,-99.99,,,-99.99,,2013-01-17 17:53:00,
2013-01-17 18:04:00,37.0,27.0,30.17,NW,310,8.0,-999.0,64,-99.99,,,-99.99,,2013-01-17 18:04:00,
2013-01-17 18:13:00,37.0,27.0,30.17,NW,320,8.0,-999.0,64,-99.99,,,-99.99,,2013-01-17 18:13:00,
2013-01-17 18:22:00,37.0,27.0,30.16,NW,320,6.0,-999.0,64,-99.99,,,-99.99,,2013-01-17 18:22:00,
2013-01-17 18:33:00,37.0,27.0,30.15,NW,310,9.0,-999.0,64,-99.99,,,-99.99,,2013-01-17 18:33:00,
2013-01-17 18:43:00,39.0,27.0,30.15,NW,320,9.0,-999.0,60,-99.99,,,-99.99,,2013-01-17 18:43:00,
2013-01-17 18:53:00,37.0,27.0,30.14,NNW,330,10.0,-999.0,64,-99.99,,,-99.99,,2013-01-17 18:53:00,
2013-01-17 19:03:00,37.0,28.0,30.14,NNW,340,12.0,-999.0,69,-99.99,,,-99.99,,2013-01-17 19:03:00,
2013-01-17 19:13:00,37.0,27.0,30.14,NNW,330,10.0,-999.0,64,-99.99,,,-99.99,,2013-01-17 19:13:00,
2013-01-17 19:23:00,37.0,27.0,30.13,NW,310,10.0,-999.0,64,-99.99,,,-99.99,,2013-01-17 19:23:00,
2013-01-17 19:33:00,37.0,27.0,30.14,NW,320,9.0,-999.0,64,-99.99,,,-99.99,,2013-01-17 19:33:00,
2013-01-17 19:43:00,37.0,27.0,30.14,NW,310,8.0,16.0,64,-99.99,,,-99.99,,2013-01-17 19:43:00,
2013-01-17 19:53:00,37.0,27.0,30.14,WNW,300,9.0,16.0,64,-99.99,,,-99.99,,2013-01-17 19:53:00,
2013-01-17 20:03:00,37.0,27.0,30.14,NW,310,10.0,16.0,64,-99.99,,,-99.99,,2013-01-17 20:03:00,
2013-01-17 20:12:00,37.0,27.0,30.14,NNW,330,8.0,-999.0,64,-99.99,,,-99.99,,2013-01-17 20:12:00,
2013-01-17 20:23:00,37.0,27.0,30.14,NW,310,9.0,-999.0,64,-99.99,,,-99.99,,2013-01-17 20:23:00,
2013-01-17 20:33:00,37.0,27.0,30.15,NNW,330,8.0,-999.0,64,-99.99,,,-99.99,,2013-01-17 20:33:00,
2013-01-17 20:43:00,39.0,27.0,30.14,WNW,300,7.0,-999.0,60,-99.99,,,-99.99,,2013-01-17 20:43:00,
2013-01-17 20:53:00,39.0,27.0,30.15,WNW,290,7.0,-999.0,60,-99.99,,,-99.99,,2013-01-17 20:53:00,
2013-01-17 21:03:00,39.0,27.0,30.15,WNW,290,8.0,-999.0,60,-99.99,,,-99.99,,2013-01-17 21:03:00,
2013-01-17 21:13:00,39.0,27.0,30.15,NW,310,6.0,-999.0,60,-99.99,,,-99.99,,2013-01-17 21:13:00,
2013-01-17 21:23:00,39.0,25.0,30.15,NW,310,10.0,-999.0,55,-99.99,,,-99.99,,2013-01-17 21:23:00,
2013-01-17 21:34:00,39.0,21.0,30.15,NW,310,9.0,-999.0,48,-99.99,,,-99.99,,2013-01-17 21:34:00,
2013-01-17 21:43:00,39.0,19.0,30.15,NW,320,12.0,18.0,44,-99.99,,,-99.99,,2013-01-17 21:43:00,
2013-01-17 21:52:00,39.0,21.0,30.16,NW,320,10.0,-999.0,48,-99.99,,,-99.99,,2013-01-17 21:52:00,
2013-01-17 22:03:00,39.0,21.0,30.16,NNW,330,15.0,-999.0,48,-99.99,,,-99.99,,2013-01-17 22:03:00,
2013-01-17 22:12:00,37.0,21.0,30.16,NW,320,14.0,-999.0,51,-99.99,,,-99.99,,2013-01-17 22:12:00,
2013-01-17 22:23:00,37.0,19.0,30.17,NW,320,12.0,17.0,47,-99.99,,,-99.99,,2013-01-17 22:23:00,
2013-01-17 22:33:00,37.0,19.0,30.18,NW,320,13.0,17.0,47,-99.99,,,-99.99,,2013-01-17 22:33:00,
2013-01-17 22:43:00,37.0,19.0,30.17,NW,310,8.0,-999.0,47,-99.99,,,-99.99,,2013-01-17 22:43:00,
2013-01-17 22:52:00,36.0,19.0,30.18,WNW,300,8.0,-999.0,51,-99.99,,,-99.99,,2013-01-17 22:52:00,
2013-01-17 23:03:00,36.0,19.0,30.18,NW,310,7.0,-999.0,51,-99.99,,,-99.99,,2013-01-17 23:03:00,
2013-01-17 23:12:00,36.0,19.0,30.19,NW,310,8.0,-999.0,51,-99.99,,,-99.99,,2013-01-17 23:12:00,
2013-01-17 23:23:00,36.0,19.0,30.21,NNW,330,12.0,16.0,51,-99.99,,,-99.99,,2013-01-17 23:23:00,
2013-01-17 23:33:00,34.0,19.0,30.21,NW,320,12.0,16.0,55,-99.99,,,-99.99,,2013-01-17 23:33:00,
2013-01-17 23:43:00,34.0,19.0,30.23,NW,320,10.0,20.0,55,-99.99,,,-99.99,,2013-01-17 23:43:00,
2013-01-17 23:53:00,34.0,19.0,30.24,NW,320,13.0,22.0,55,-99.99,,,-99.99,,2013-01-17 23:53:00,